Location: Fours
(44.3167°N, 6.7000°E)
Time: 12:49:33
(UTC+00:00)

SKYMED 2 - Pass Details

Date: 30 November 2020
Orbit: 621 x 623 km, 97.9° (Epoch: 26 January)

Event Time Altitude Azimuth Distance (km) Brightness Sun altitude
Exits shadow 17:52:31 17° 9° (N) 1,612 5.5 -20.3°
Maximum altitude 17:55:54 79° 284° (WNW) 642 3.6 -20.9°
Drops below altitude 10° 18:00:14 10° 199° (SSW) 1,988 6.5 -21.7°
Sets 18:02:24 0° 198° (SSW) 2,890 7.4 -22.1°
